Dewpoint
69 70 71 71 71 71 70 70 70 71 70 70 69 69 69 66 63 64 66 63 65 65 64 64 63 64 64 66 66 65 64 67 67
70 71 71 71 71 71 70 70 70 71 71 70 69 68 67 63 63 63 62 63 65 65 64 63 62 62 67 67 65 63 67 67 66
70 70 70 71 70 70 70 70 71 70 70 69 69 67 65 63 62 61 62 66 65 64 63 63 63 65 66 65 64 66 66 66 65
70 70 70 69 70 71 70 70 70 70 70 70 69 66 64 61 63 62 63 68 65 64 63 63 65 67 66 65 64 65 65 64 64
69 69 69 70 69 70 70 70 70 70 69 69 68 66 65 59 61 63 63 68 64 63 64 64 66 66 65 64 65 65 64 63 62
66 67 67 68 69 68 69 70 69 68 67 67 67 66 63 58 57 62 66 67 63 63 66 66 66 65 64 63 64 65 64 62 60
66 64 66 68 68 68 68 69 68 66 65 66 66 64 62 59 59 61 65 67 63 63 65 66 65 64 63 61 62 65 64 62 61
65 65 64 65 65 66 66 66 65 63 64 63 63 62 61 59 59 61 65 67 64 64 63 65 66 63 62 62 64 64 63 62 61
64 63 63 64 64 64 65 65 64 65 64 63 62 60 59 58 61 62 64 66 66 64 64 65 64 62 62 64 64 64 63 61 60
63 63 63 63 62 64 63 63 63 62 60 63 63 61 58 58 61 62 62 65 66 66 66 66 63 63 63 64 65 64 63 62 60
62 63 63 63 62 62 63 63 62 61 62 63 63 63 60 58 61 62 62 63 65 66 66 66 65 64 65 65 65 64 62 61 60
62 62 63 63 63 62 62 61 61 59 60 62 62 61 62 60 62 62 62 62 64 65 66 66 65 65 64 64 65 64 63 62 60
58 60 61 63 63 63 61 61 61 60 59 58 60 61 60 59 61 62 61 61 62 64 65 65 66 65 64 64 65 64 62 63 61
52 53 54 56 61 62 62 61 60 59 59 59 59 59 60 59 60 60 60 60 61 63 63 63 64 64 65 65 65 64 63 62 60
46 48 50 51 55 58 61 61 61 60 59 59 59 60 59 59 59 58 58 58 60 61 62 63 62 63 64 65 65 64 63 61 60
42 44 45 47 50 52 53 57 60 59 60 60 59 59 59 58 58 58 57 56 58 59 60 61 62 62 63 64 65 65 64 61 60
39 40 42 43 46 47 48 50 53 58 60 57 57 54 56 58 58 58 57 56 56 57 57 58 60 60 61 62 63 63 65 63 62
38 39 40 41 42 42 44 45 47 50 56 59 57 53 51 55 57 56 56 56 55 56 56 57 58 59 59 60 61 61 62 64 63
37 37 38 38 40 40 41 42 44 46 48 52 58 57 53 53 52 56 56 56 55 55 56 57 57 57 57 58 58 59 61 63 63
33 35 36 37 38 39 39 40 40 41 42 44 47 53 52 52 50 52 54 56 56 55 55 56 56 56 56 56 57 58 60 62 62
Lifted_Index
-5 -5 -5 -5 -5 -5 -4 -4 -4 -3 -3 -2 -2 -1 -0 1 1 1 1 1 1 2 3 3 3 3 2 1 1 2 2 1 0
-6 -5 -5 -5 -5 -5 -4 -4 -4 -4 -3 -3 -2 -1 -0 1 1 1 1 1 2 2 3 3 3 2 1 1 2 2 1 1 1
-6 -5 -5 -5 -5 -5 -5 -4 -4 -4 -3 -3 -2 -1 -0 0 1 2 1 1 2 2 3 3 3 2 1 1 2 1 1 1 1
-5 -5 -5 -5 -5 -5 -5 -4 -4 -3 -3 -3 -2 -1 -0 0 1 2 1 1 1 2 3 2 2 1 1 2 2 1 1 2 2
-4 -4 -4 -4 -4 -5 -5 -5 -4 -3 -3 -2 -1 -1 -0 0 1 1 1 1 2 2 2 2 1 1 2 2 2 2 2 3 3
-3 -3 -4 -4 -4 -4 -4 -4 -4 -3 -2 -1 -1 -0 0 1 1 1 1 1 2 2 1 1 1 2 2 3 2 2 2 3 4
-3 -3 -3 -3 -4 -3 -4 -4 -3 -2 -1 -1 -0 0 0 1 2 2 1 1 1 2 1 1 1 2 3 3 3 2 3 4 4
-2 -2 -3 -3 -3 -3 -3 -3 -3 -2 -1 -0 0 1 1 2 3 2 1 1 1 2 1 1 2 3 3 3 3 2 3 4 4
-2 -2 -2 -3 -3 -3 -3 -2 -2 -1 0 1 1 2 3 3 3 2 1 0 0 1 1 1 2 3 3 2 2 2 3 4 5
-2 -2 -2 -2 -2 -3 -2 -2 -2 -1 0 0 1 1 3 3 3 1 1 0 0 0 0 1 2 2 2 2 2 2 3 4 5
-1 -1 -1 -2 -2 -2 -2 -2 -2 -1 -0 0 -0 0 1 2 2 0 0 0 -0 -0 -0 0 1 1 1 1 1 2 3 4 4
-0 -1 -1 -1 -1 -1 -2 -2 -2 -1 -0 0 -0 -0 0 1 0 -0 -1 -0 -0 -0 -0 -0 0 1 1 1 1 2 2 3 4
1 0 0 -0 -0 -1 -1 -1 -1 -0 0 1 1 0 -0 -0 -1 -1 -1 -0 0 0 -0 -0 -0 0 1 1 1 1 2 3 4
1 1 1 1 1 0 0 -0 -0 0 1 1 1 1 0 -0 -0 -1 -0 0 1 1 0 0 0 0 0 0 1 1 2 3 4
2 2 2 2 2 2 1 1 1 1 1 1 1 1 0 0 -0 -0 0 1 1 1 1 1 1 1 0 0 0 1 2 3 3
4 4 4 4 4 3 2 2 1 1 1 0 1 1 1 0 0 0 0 1 1 1 1 1 1 1 1 0 0 0 1 2 3
6 5 5 5 5 5 4 3 2 1 1 1 1 1 1 1 0 0 0 1 1 1 2 2 2 1 1 1 0 0 1 2 2
7 7 7 7 6 6 6 5 4 3 2 1 1 1 1 1 1 1 0 0 1 1 1 2 2 1 1 1 1 1 1 1 1
8 8 8 7 7 7 7 6 5 4 3 3 2 2 2 2 1 1 1 0 0 1 1 2 2 2 2 2 2 2 2 1 1
9 8 8 8 7 7 7 6 6 5 5 4 3 2 2 2 2 1 1 1 0 1 1 1 2 2 2 2 3 3 2 2 1